Location: Narrabri
(30.3170°S, 149.7830°E)
Time: 07:05:37
(UTC+10:00)

Hubble Space Telescope - Visible Passes

Search period start: 22 August 2019 00:00
Search period end: 01 September 2019 00:00
Orbit: 536 x 540 km, 28.5° (Epoch: 21 August)

Date Brightness Start Highest point End Pass type
(mag) Time Alt. Az. Time Alt. Az. Time Alt. Az.
22 Aug 1.0 05:01:24 44° NW 05:02:28 63° N 05:06:37 10° E visible
23 Aug 0.8 04:51:28 60° NW 04:51:56 67° N 04:56:05 10° E visible
24 Aug 0.9 04:41:31 68° NNE 04:41:31 68° NNE 04:45:33 10° E visible
25 Aug 1.3 04:31:32 56° NE 04:31:32 56° NE 04:35:00 10° E visible
26 Aug 1.9 04:21:36 41° ENE 04:21:36 41° ENE 04:24:28 10° E visible
27 Aug 2.5 04:11:40 30° ENE 04:11:40 30° ENE 04:13:54 10° ENE visible
27 Aug 1.9 05:47:00 10° W 05:50:45 32° NNW 05:54:29 10° NE visible
28 Aug 3.1 04:01:46 22° ENE 04:01:46 22° ENE 04:03:19 10° ENE visible
28 Aug 2.1 05:37:06 13° WNW 05:40:08 27° NNW 05:43:40 10° NE visible
29 Aug 3.5 03:51:54 15° ENE 03:51:54 15° ENE 03:52:43 10° ENE visible
29 Aug 2.4 05:27:15 15° WNW 05:29:32 22° NNW 05:32:46 10° NNE visible
30 Aug 2.6 05:17:27 15° NW 05:18:54 18° NNW 05:21:43 10° NNE visible
31 Aug 2.8 05:07:42 14° NW 05:08:16 14° NNW 05:10:29 10° N visible
